Location: Star Hoppers Observatory
(42.7905°N, 83.6127°W)
Time: 05:50:16
(UTC-04:00)

NOSS 3-1 (A) - Visible Passes

Search period start: 01 August 2014 00:00
Search period end: 11 August 2014 00:00
Orbit: 896 x 1317 km, 63.4° (Epoch: 29 July)

Date Brightness Start Highest point End Pass type
(mag) Time Alt. Az. Time Alt. Az. Time Alt. Az.
01 Aug 6.4 00:23:39 10° NNW 00:27:19 14° N 00:31:08 10° NE visible
01 Aug 5.6 02:14:30 10° NNW 02:20:52 31° NE 02:27:41 10° E visible
01 Aug 3.9 04:05:05 10° NW 04:12:37 82° WSW 04:20:43 10° SSE visible
01 Aug 6.2 21:43:01 10° WNW 21:47:42 21° NNW 21:52:42 10° NNE visible
01 Aug 6.4 23:38:28 10° NNW 23:41:42 13° N 23:45:04 10° NNE visible
02 Aug 5.9 01:29:58 10° NNW 01:35:37 24° NNE 01:41:39 10° E visible
02 Aug 4.2 03:20:25 10° NNW 03:27:53 72° NE 03:35:56 10° SE visible
02 Aug 4.8 05:12:09 10° NW 05:18:27 29° WSW 05:25:05 10° SSW visible
02 Aug 6.4 22:52:50 10° NW 22:56:05 14° N 22:59:29 10° NNE visible
03 Aug 6.1 00:45:23 10° NNW 00:50:15 19° NNE 00:55:23 10° ENE visible
03 Aug 4.7 02:35:50 10° NNW 02:43:01 51° NE 02:50:46 10° ESE visible
03 Aug 4.3 04:26:57 10° NW 04:34:02 44° WSW 04:41:33 10° S visible
03 Aug 6.3 22:06:50 10° NW 22:10:30 15° NNW 22:14:22 10° NNE visible
04 Aug 6.3 00:00:40 10° NNW 00:04:45 16° NNE 00:09:02 10° NE visible
04 Aug 5.2 01:51:17 10° NNW 01:58:01 37° NE 02:05:15 10° ESE visible
04 Aug 3.9 03:42:02 10° NW 03:49:29 65° WSW 03:56:02 16° SSE visible
04 Aug 5.5 05:36:12 10° W 05:39:21 13° WSW 05:42:33 10° SW visible
04 Aug 6.2 21:20:44 10° WNW 21:25:01 18° NNW 21:29:34 10° NNE visible
04 Aug 6.3 23:15:43 10° NNW 23:19:10 14° N 23:22:46 10° NE visible
05 Aug 5.6 01:06:46 10° NNW 01:12:52 28° NE 01:19:24 10° E visible
05 Aug 3.9 02:57:17 10° NW 03:04:49 88° NE 03:09:39 27° SE visible
05 Aug 5.1 04:49:36 10° WNW 04:55:08 22° WSW 04:56:54 20° SW visible
05 Aug 6.3 22:30:22 10° NNW 22:33:33 13° N 22:36:52 10° NNE visible
06 Aug 5.9 00:22:13 10° NNW 00:27:35 22° NNE 00:33:16 10° ENE visible
06 Aug 4.3 02:12:39 10° NNW 02:20:02 63° NE 02:24:26 29° ESE visible
06 Aug 4.6 04:04:06 10° NW 04:10:47 34° WSW 04:11:45 33° SW visible
06 Aug 6.2 21:44:33 10° NW 21:47:56 14° N 21:51:28 10° NNE visible
06 Aug 6.1 23:37:36 10° NNW 23:42:09 17° NNE 23:46:57 10° ENE visible
07 Aug 4.8 01:28:05 10° NNW 01:35:07 45° NE 01:39:44 23° ESE visible
07 Aug 4.1 03:19:02 10° NW 03:26:18 51° WSW 03:27:04 50° SW visible
07 Aug 6.2 22:52:49 10° NNW 22:56:37 15° NNE 23:00:36 10° NE visible
08 Aug 5.2 00:43:33 10° NNW 00:50:04 33° NE 00:55:20 16° E visible
08 Aug 3.9 02:34:12 10° NW 02:41:43 75° WSW 02:42:41 67° S visible
08 Aug 5.5 04:27:25 10° WNW 04:30:03 15° W 04:30:03 15° W visible
08 Aug 6.2 22:07:43 10° NNW 22:11:01 14° N 22:14:27 10° NNE visible
08 Aug 5.6 23:59:01 10° NNW 00:04:52 25° NNE 00:11:05 10° E visible
09 Aug 4.0 01:49:30 10° NW 01:57:00 77° NE 01:58:30 61° ESE visible
09 Aug 5.1 03:41:25 10° WNW 03:45:53 24° W 03:45:53 24° W visible
09 Aug 6.2 21:22:11 10° NNW 21:25:24 13° N 21:28:44 10° NNE visible
09 Aug 5.9 23:14:27 10° NNW 23:19:31 20° NNE 23:24:52 10° ENE visible
10 Aug 4.4 01:04:54 10° NNW 01:12:10 55° NE 01:14:28 42° E visible
10 Aug 4.6 02:56:08 10° NW 03:01:51 38° W 03:01:51 38° W visible
10 Aug 6.0 22:29:47 10° NNW 22:34:03 16° NNE 22:38:31 10° NE visible
